User: anonymous
Location: Caltech
(34.1382°N, 118.1253°W)
Time: 12:36:11
(UTC-07:00)
Language:

TMSAT-1 - Orbit

View from above orbital plane
View from above orbital plane
View from above satellite
View from above satellite

Ground track
Ground track

The orbit data is extracted from the following two-line orbital elements,

1 25396U 98043C   14210.94640900  .00000070  00000-0  48426-4 0  9118
2 25396 098.4415 171.0709 0003438 141.7003 254.3012 14.24181402834242
Epoch (UTC): 29 July 2014 22:42:49
Eccentricity: 0.0003438
inclination: 98.4415°
perigee height: 809 km
apogee height: 814 km
right ascension of ascending node: 171.0709°
argument of perigee: 141.7003°
revolutions per day: 14.24181402
mean anomaly at epoch: 254.3012°
orbit number at epoch: 83424

The dashed part of the orbit path shows where the satellite is in the earth's shadow,  

DLR